| time (UTC) | temp F | wind direction | speed MPH | gust MPH | rain 1hr in | rain 24hr in | rain mn in | humidity % | barometer mb |
| 20260506204504 | 75 | 20 | 3.0 | 12.0 | 0.00 | 0.00 | 0.00 | 60 | 1016.2 |
| 20260506204004 | 75 | 344 | 3.0 | 10.0 | 0.00 | 0.00 | 0.00 | 61 | 1016.1 |
| 20260506203504 | 75 | 18 | 3.0 | 11.0 | 0.00 | 0.00 | 0.00 | 61 | 1016.1 |
| 20260506203004 | 75 | 39 | 3.0 | 11.0 | 0.00 | 0.00 | 0.00 | 60 | 1016.2 |
| 20260506202504 | 75 | 326 | 4.0 | 12.0 | 0.00 | 0.00 | 0.00 | 61 | 1016.2 |
| 20260506202004 | 74 | 291 | 5.0 | 12.0 | 0.00 | 0.00 | 0.00 | 62 | 1016.2 |
| 20260506201504 | 74 | 264 | 5.0 | 11.0 | 0.00 | 0.00 | 0.00 | 61 | 1016.2 |
| 20260506201004 | 75 | 334 | 4.0 | 11.0 | 0.00 | 0.00 | 0.00 | 60 | 1016.3 |
| 20260506200504 | 75 | 29 | 4.0 | 10.0 | 0.00 | 0.00 | 0.00 | 60 | 1016.1 |
| 20260506200004 | 76 | 29 | 4.0 | 11.0 | 0.00 | 0.00 | 0.00 | 60 | 1016.2 |
| 20260506195509 | 76 | 340 | 3.0 | 10.0 | 0.00 | 0.00 | 0.00 | 59 | 1016.3 |
| 20260506195504 | 75 | 328 | 3.0 | 11.0 | 0.00 | 0.00 | 0.00 | 60 | 1016.3 |
| 20260506194509 | 76 | 307 | 3.0 | 13.0 | 0.00 | 0.00 | 0.00 | 59 | 1016.4 |
| 20260506194503 | 76 | 322 | 4.0 | 13.0 | 0.00 | 0.00 | 0.00 | 58 | 1016.3 |
| 20260506193508 | 76 | 296 | 2.0 | 9.0 | 0.00 | 0.00 | 0.00 | 58 | 1016.5 |
| 20260506193502 | 76 | 29 | 1.0 | 8.0 | 0.00 | 0.00 | 0.00 | 59 | 1016.4 |
| 20260506192504 | 75 | 329 | 1.0 | 5.0 | 0.00 | 0.00 | 0.00 | 58 | 1016.4 |
| 20260506192004 | 75 | 120 | 2.0 | 8.0 | 0.00 | 0.00 | 0.00 | 55 | 1016.5 |
| 20260506191504 | 75 | 61 | 2.0 | 9.0 | 0.00 | 0.00 | 0.00 | 55 | 1016.5 |
| 20260506191004 | 74 | 67 | 2.0 | 9.0 | 0.00 | 0.00 | 0.00 | 55 | 1016.6 |
| 20260506190502 | 74 | 76 | 1.0 | 6.0 | 0.00 | 0.00 | 0.00 | 55 | 1016.6 |
| 20260506190003 | 75 | 237 | 1.0 | 5.0 | 0.00 | 0.00 | 0.00 | 55 | 1016.9 |
| 20260506185502 | 73 | 288 | 1.0 | 6.0 | 0.00 | 0.00 | 0.00 | 57 | 1016.6 |
| 20260506185008 | 74 | 341 | 2.0 | 7.0 | 0.00 | 0.00 | 0.00 | 57 | 1017.1 |
| 20260506185002 | 74 | 29 | 1.0 | 6.0 | 0.00 | 0.00 | 0.00 | 56 | 1016.9 |
| 20260506184000 | 74 | 340 | 2.0 | 7.0 | 0.00 | 0.00 | 0.00 | 56 | 1017.1 |
| 20260506183501 | 74 | 333 | 1.0 | 4.0 | 0.00 | 0.00 | 0.00 | 59 | 1017.2 |
| 20260506183001 | 73 | 304 | 2.0 | 9.0 | 0.00 | 0.00 | 0.00 | 58 | 1017.1 |
| 20260506182459 | 73 | 318 | 2.0 | 9.0 | 0.00 | 0.00 | 0.00 | 59 | 1017.2 |
| 20260506182000 | 71 | 48 | 1.0 | 8.0 | 0.00 | 0.00 | 0.00 | 58 | 1017.3 |
| 20260506181458 | 71 | 320 | 1.0 | 5.0 | 0.00 | 0.00 | 0.00 | 62 | 1017.3 |
| 20260506180959 | 71 | 22 | 1.0 | 9.0 | 0.00 | 0.00 | 0.00 | 61 | 1017.4 |
| 20260506180459 | 71 | 159 | 1.0 | 9.0 | 0.00 | 0.00 | 0.00 | 59 | 1017.4 |
| 20260506175958 | 71 | 345 | 1.0 | 5.0 | 0.00 | 0.00 | 0.00 | 62 | 1017.5 |
| 20260506175459 | 71 | 0 | 1.0 | 5.0 | 0.00 | 0.00 | 0.00 | 59 | 1017.6 |
| 20260506174959 | 71 | 359 | 1.0 | 5.0 | 0.00 | 0.00 | 0.00 | 63 | 1017.7 |
| 20260506174456 | 70 | 19 | 0.0 | 4.0 | 0.00 | 0.00 | 0.00 | 63 | 1017.6 |
| 20260506173957 | 69 | 284 | 0.0 | 4.0 | 0.00 | 0.00 | 0.00 | 65 | 1017.9 |
| 20260506173457 | 69 | 154 | 1.0 | 4.0 | 0.00 | 0.00 | 0.00 | 65 | 1017.8 |
| 20260506173003 | 68 | 24 | 0.0 | 4.0 | 0.00 | 0.00 | 0.00 | 64 | 1017.9 |
| 20260506172957 | 69 | 155 | 1.0 | 7.0 | 0.00 | 0.00 | 0.00 | 64 | 1017.8 |
| 20260506172456 | 69 | 84 | 1.0 | 7.0 | 0.00 | 0.00 | 0.00 | 65 | 1017.9 |
| 20260506171501 | 68 | 103 | 1.0 | 4.0 | 0.00 | 0.00 | 0.00 | 66 | 1018.0 |
| 20260506171456 | 68 | 105 | 0.0 | 4.0 | 0.00 | 0.00 | 0.00 | 65 | 1018.1 |
| 20260506170457 | 67 | 336 | 1.0 | 4.0 | 0.00 | 0.00 | 0.00 | 66 | 1018.0 |
| 20260506165955 | 67 | 128 | 1.0 | 4.0 | 0.00 | 0.00 | 0.00 | 67 | 1018.1 |
| 20260506165456 | 66 | 77 | 1.0 | 8.0 | 0.00 | 0.00 | 0.00 | 67 | 1018.1 |
| 20260506164956 | 66 | 39 | 1.0 | 8.0 | 0.00 | 0.00 | 0.00 | 68 | 1018.1 |
| 20260506164458 | 65 | 176 | 0.0 | 2.0 | 0.00 | 0.00 | 0.00 | 71 | 1018.1 |
| 20260506163956 | 65 | 175 | 0.0 | 2.0 | 0.00 | 0.00 | 0.00 | 71 | 1018.1 |
| 20260506163457 | 65 | 292 | 0.0 | 2.0 | 0.00 | 0.00 | 0.00 | 73 | 1018.1 |
| 20260506162957 | 65 | 291 | 1.0 | 4.0 | 0.00 | 0.00 | 0.00 | 74 | 1018.1 |
| 20260506162620 | 63 | 286 | 0.0 | 3.0 | 0.00 | 0.01 | 0.00 | 75 | 1018.2 |
| 20260506162501 | 63 | 263 | 0.0 | 1.0 | 0.00 | 0.01 | 0.00 | 77 | 1018.1 |
| 20260506162457 | 64 | 280 | 1.0 | 4.0 | 0.00 | 0.01 | 0.00 | 74 | 1018.2 |
| 20260506161455 | 62 | 205 | 0.0 | 1.0 | 0.00 | 0.01 | 0.00 | 75 | 1018.1 |
| 20260506160956 | 63 | 255 | 0.0 | 3.0 | 0.00 | 0.01 | 0.00 | 75 | 1018.2 |
| 20260506155955 | 63 | 274 | 0.0 | 3.0 | 0.00 | 0.01 | 0.00 | 76 | 1018.1 |
| 20260506155458 | 62 | 248 | 0.0 | 2.0 | 0.00 | 0.01 | 0.00 | 76 | 1018.1 |
| 20260506154957 | 62 | 248 | 0.0 | 2.0 | 0.00 | 0.01 | 0.00 | 78 | 1018.2 |
| 20260506154456 | 61 | 247 | 0.0 | 2.0 | 0.00 | 0.02 | 0.00 | 78 | 1018.1 |
| 20260506154001 | 60 | 243 | 1.0 | 3.0 | 0.00 | 0.02 | 0.00 | 80 | 1018.2 |
| 20260506153955 | 61 | 247 | 0.0 | 3.0 | 0.00 | 0.02 | 0.00 | 79 | 1018.2 |
| 20260506153614 | 60 | 263 | 0.0 | 3.0 | 0.00 | 0.03 | 0.00 | 79 | 1018.2 |
| 20260506153114 | 59 | 263 | 0.0 | 1.0 | 0.00 | 0.03 | 0.00 | 81 | 1018.2 |
| 20260506152456 | 60 | 263 | 0.0 | 2.0 | 0.00 | 0.03 | 0.00 | 80 | 1018.2 |
| 20260506151453 | 58 | 263 | 0.0 | 1.0 | 0.00 | 0.03 | 0.00 | 81 | 1018.2 |
| 20260506150955 | 58 | 332 | 0.0 | 1.0 | 0.00 | 0.03 | 0.00 | 82 | 1018.3 |
| 20260506150453 | 57 | 332 | 0.0 | 1.0 | 0.00 | 0.04 | 0.00 | 83 | 1018.3 |
| 20260506145957 | 56 | 332 | 0.0 | 0.0 | 0.00 | 0.04 | 0.00 | 86 | 1018.3 |
| 20260506145953 | 57 | 332 | 0.0 | 1.0 | 0.00 | 0.04 | 0.00 | 84 | 1018.3 |
| 20260506144959 | 55 | 342 | 0.0 | 0.0 | 0.00 | 0.05 | 0.00 | 88 | 1018.2 |
| 20260506144951 | 56 | 330 | 0.0 | 0.0 | 0.00 | 0.05 | 0.00 | 86 | 1018.3 |
| 20260506144452 | 56 | 342 | 0.0 | 0.0 | 0.00 | 0.05 | 0.00 | 87 | 1018.2 |
| 20260506143452 | 54 | 342 | 0.0 | 0.0 | 0.00 | 0.05 | 0.00 | 89 | 1018.2 |
| 20260506142953 | 54 | 342 | 0.0 | 0.0 | 0.00 | 0.06 | 0.00 | 89 | 1018.2 |
| 20260506142453 | 54 | 342 | 0.0 | 1.0 | 0.00 | 0.06 | 0.00 | 90 | 1018.2 |
| 20260506141953 | 53 | 342 | 0.0 | 1.0 | 0.00 | 0.07 | 0.00 | 90 | 1018.1 |
| 20260506141451 | 53 | 342 | 0.0 | 0.0 | 0.00 | 0.07 | 0.00 | 91 | 1018.1 |
| 20260506140950 | 52 | 342 | 0.0 | 0.0 | 0.00 | 0.07 | 0.00 | 91 | 1018.1 |
| 20260506140456 | 51 | 342 | 0.0 | 0.0 | 0.00 | 0.09 | 0.00 | 92 | 1018.0 |
| 20260506140451 | 52 | 342 | 0.0 | 0.0 | 0.00 | 0.07 | 0.00 | 92 | 1018.2 |
| 20260506135951 | 51 | 342 | 0.0 | 0.0 | 0.00 | 0.08 | 0.00 | 92 | 1018.2 |
| 20260506135450 | 51 | 342 | 0.0 | 0.0 | 0.00 | 0.09 | 0.00 | 92 | 1018.1 |
| 20260506134450 | 50 | 342 | 0.0 | 0.0 | 0.00 | 0.09 | 0.00 | 92 | 1017.9 |
| 20260506133950 | 50 | 342 | 0.0 | 0.0 | 0.00 | 0.09 | 0.00 | 92 | 1017.9 |
| 20260506133454 | 49 | 342 | 0.0 | 0.0 | 0.00 | 0.10 | 0.00 | 92 | 1018.0 |
| 20260506133449 | 49 | 342 | 0.0 | 0.0 | 0.00 | 0.10 | 0.00 | 92 | 1017.9 |
| 20260506132449 | 49 | 342 | 0.0 | 0.0 | 0.00 | 0.11 | 0.00 | 92 | 1017.8 |
| 20260506131949 | 49 | 342 | 0.0 | 0.0 | 0.00 | 0.11 | 0.00 | 92 | 1017.8 |
| 20260506131447 | 49 | 342 | 0.0 | 0.0 | 0.00 | 0.11 | 0.00 | 92 | 1017.7 |
| 20260506130948 | 49 | 342 | 0.0 | 0.0 | 0.00 | 0.11 | 0.00 | 92 | 1017.7 |
| 20260506130447 | 49 | 342 | 0.0 | 0.0 | 0.00 | 0.12 | 0.00 | 92 | 1017.6 |
| 20260506125947 | 49 | 342 | 0.0 | 0.0 | 0.00 | 0.12 | 0.00 | 92 | 1017.6 |
| 20260506125453 | 49 | 342 | 0.0 | 0.0 | 0.00 | 0.13 | 0.00 | 92 | 1017.4 |
| 20260506125447 | 49 | 342 | 0.0 | 0.0 | 0.00 | 0.13 | 0.00 | 92 | 1017.5 |
| 20260506124448 | 49 | 342 | 0.0 | 0.0 | 0.00 | 0.13 | 0.00 | 92 | 1017.5 |
| 20260506123947 | 49 | 342 | 0.0 | 0.0 | 0.00 | 0.14 | 0.00 | 92 | 1017.4 |
| 20260506123448 | 49 | 342 | 0.0 | 0.0 | 0.00 | 0.14 | 0.00 | 92 | 1017.4 |
| 20260506122947 | 49 | 342 | 0.0 | 0.0 | 0.00 | 0.15 | 0.00 | 92 | 1017.3 |
| 20260506122445 | 49 | 342 | 0.0 | 0.0 | 0.00 | 0.15 | 0.00 | 92 | 1017.3 |
| 20260506121945 | 49 | 342 | 0.0 | 0.0 | 0.00 | 0.15 | 0.00 | 92 | 1017.3 |
| 20260506121445 | 49 | 342 | 0.0 | 0.0 | 0.00 | 0.15 | 0.00 | 91 | 1017.2 |
| 20260506120945 | 49 | 342 | 0.0 | 0.0 | 0.00 | 0.15 | 0.00 | 91 | 1017.3 |
| 20260506120446 | 49 | 342 | 0.0 | 0.0 | 0.00 | 0.15 | 0.00 | 91 | 1017.3 |
| 20260506115952 | 49 | 342 | 0.0 | 0.0 | 0.00 | 0.15 | 0.00 | 92 | 1017.3 |
| 20260506115946 | 49 | 342 | 0.0 | 0.0 | 0.00 | 0.15 | 0.00 | 92 | 1017.3 |
| 20260506115603 | 50 | 342 | 0.0 | 0.0 | 0.00 | 0.15 | 0.00 | 91 | 1017.3 |
| 20260506115103 | 50 | 342 | 0.0 | 0.0 | 0.00 | 0.15 | 0.00 | 91 | 1017.2 |
| 20260506113943 | 50 | 342 | 0.0 | 0.0 | 0.00 | 0.15 | 0.00 | 91 | 1017.0 |
| 20260506113444 | 50 | 342 | 0.0 | 0.0 | 0.00 | 0.15 | 0.00 | 91 | 1017.1 |
| 20260506112944 | 50 | 342 | 0.0 | 0.0 | 0.00 | 0.15 | 0.00 | 91 | 1017.1 |
| 20260506112444 | 50 | 342 | 0.0 | 0.0 | 0.00 | 0.15 | 0.00 | 91 | 1017.2 |
| 20260506112103 | 50 | 342 | 0.0 | 0.0 | 0.00 | 0.16 | 0.00 | 91 | 1017.0 |
| 20260506111949 | 50 | 342 | 0.0 | 0.0 | 0.00 | 0.16 | 0.00 | 91 | 1017.0 |
| 20260506111945 | 50 | 342 | 0.0 | 0.0 | 0.00 | 0.16 | 0.00 | 91 | 1017.1 |
| 20260506110443 | 50 | 342 | 0.0 | 0.0 | 0.00 | 0.17 | 0.00 | 91 | 1017.0 |
| 20260506105944 | 50 | 342 | 0.0 | 0.0 | 0.00 | 0.17 | 0.00 | 91 | 1016.9 |
| 20260506105444 | 50 | 342 | 0.0 | 0.0 | 0.00 | 0.17 | 0.00 | 91 | 1016.9 |
| 20260506104942 | 50 | 342 | 0.0 | 0.0 | 0.00 | 0.17 | 0.00 | 91 | 1016.9 |
| 20260506104446 | 51 | 342 | 0.0 | 0.0 | 0.00 | 0.18 | 0.00 | 91 | 1016.9 |
| 20260506104441 | 50 | 342 | 0.0 | 0.0 | 0.00 | 0.18 | 0.00 | 91 | 1016.9 |
| 20260506103441 | 51 | 342 | 0.0 | 0.0 | 0.00 | 0.19 | 0.00 | 91 | 1016.8 |
| 20260506102947 | 51 | 342 | 0.0 | 0.0 | 0.00 | 0.19 | 0.00 | 90 | 1016.8 |
| 20260506102942 | 51 | 342 | 0.0 | 0.0 | 0.00 | 0.19 | 0.00 | 90 | 1016.9 |
| 20260506101940 | 51 | 342 | 0.0 | 0.0 | 0.00 | 0.20 | 0.00 | 90 | 1016.8 |
| 20260506101442 | 51 | 342 | 0.0 | 0.0 | 0.00 | 0.21 | 0.00 | 90 | 1016.7 |
| 20260506100942 | 51 | 342 | 0.0 | 0.0 | 0.00 | 0.21 | 0.00 | 90 | 1016.9 |
| 20260506100442 | 51 | 342 | 0.0 | 0.0 | 0.00 | 0.22 | 0.00 | 90 | 1016.8 |
| 20260506095942 | 51 | 342 | 0.0 | 1.0 | 0.00 | 0.22 | 0.00 | 90 | 1016.9 |
| 20260506095446 | 51 | 342 | 0.0 | 1.0 | 0.00 | 0.24 | 0.00 | 89 | 1016.9 |
| 20260506095441 | 51 | 342 | 0.0 | 1.0 | 0.00 | 0.23 | 0.00 | 90 | 1016.8 |
| 20260506094448 | 51 | 340 | 0.0 | 0.0 | 0.00 | 0.25 | 0.00 | 89 | 1016.7 |
| 20260506094442 | 51 | 340 | 0.0 | 0.0 | 0.00 | 0.25 | 0.00 | 90 | 1016.8 |
| 20260506093441 | 51 | 340 | 0.0 | 0.0 | 0.00 | 0.26 | 0.00 | 89 | 1016.7 |
| 20260506092942 | 52 | 340 | 0.0 | 0.0 | 0.00 | 0.27 | 0.00 | 89 | 1016.7 |
| 20260506092440 | 52 | 340 | 0.0 | 0.0 | 0.00 | 0.28 | 0.00 | 89 | 1016.8 |
| 20260506091941 | 52 | 340 | 0.0 | 0.0 | 0.00 | 0.29 | 0.00 | 89 | 1016.9 |
| 20260506091442 | 52 | 340 | 0.0 | 0.0 | 0.00 | 0.30 | 0.00 | 89 | 1016.9 |
| 20260506090942 | 52 | 340 | 0.0 | 0.0 | 0.00 | 0.31 | 0.00 | 89 | 1016.9 |
| 20260506090442 | 53 | 340 | 0.0 | 0.0 | 0.00 | 0.32 | 0.00 | 89 | 1016.9 |
| 20260506085942 | 52 | 340 | 0.0 | 0.0 | 0.00 | 0.33 | 0.00 | 88 | 1017.0 |
| 20260506085442 | 52 | 340 | 0.0 | 0.0 | 0.00 | 0.34 | 0.00 | 88 | 1017.0 |
| 20260506084940 | 53 | 340 | 0.0 | 0.0 | 0.00 | 0.34 | 0.00 | 88 | 1017.1 |
| 20260506084440 | 53 | 340 | 0.0 | 0.0 | 0.00 | 0.34 | 0.00 | 88 | 1017.1 |
| 20260506083942 | 53 | 340 | 0.0 | 0.0 | 0.00 | 0.34 | 0.00 | 88 | 1017.2 |
| 20260506083441 | 53 | 340 | 0.0 | 0.0 | 0.00 | 0.34 | 0.00 | 88 | 1017.2 |
| 20260506082942 | 53 | 340 | 0.0 | 0.0 | 0.00 | 0.34 | 0.00 | 88 | 1017.2 |
| 20260506082440 | 53 | 340 | 0.0 | 0.0 | 0.00 | 0.34 | 0.00 | 87 | 1017.3 |
| 20260506081942 | 53 | 340 | 0.0 | 0.0 | 0.00 | 0.34 | 0.00 | 87 | 1017.3 |
| 20260506081442 | 53 | 340 | 0.0 | 0.0 | 0.00 | 0.34 | 0.00 | 87 | 1017.3 |
| 20260506080947 | 53 | 340 | 0.0 | 0.0 | 0.00 | 0.34 | 0.00 | 87 | 1017.4 |
| 20260506080940 | 53 | 340 | 0.0 | 0.0 | 0.00 | 0.34 | 0.00 | 87 | 1017.4 |
| 20260506072940 | 55 | 340 | 0.0 | 0.0 | 0.00 | 0.35 | 0.00 | 85 | 1017.5 |
| 20260506072439 | 55 | 340 | 0.0 | 0.0 | 0.00 | 0.36 | 0.00 | 85 | 1017.5 |
| 20260506071939 | 55 | 340 | 0.0 | 0.0 | 0.00 | 0.36 | 0.00 | 85 | 1017.5 |
| 20260506071438 | 55 | 340 | 0.0 | 0.0 | 0.00 | 0.37 | 0.00 | 85 | 1017.4 |
| 20260506070940 | 55 | 340 | 0.0 | 0.0 | 0.00 | 0.37 | 0.00 | 84 | 1017.5 |
| 20260506070440 | 55 | 340 | 0.0 | 0.0 | 0.00 | 0.37 | 0.00 | 84 | 1017.5 |
| 20260506062434 | 57 | 340 | 0.0 | 0.0 | 0.00 | 0.37 | 0.37 | 82 | 1017.3 |
| 20260506061934 | 57 | 340 | 0.0 | 0.0 | 0.00 | 0.37 | 0.37 | 82 | 1017.2 |
| 20260506061435 | 57 | 340 | 0.0 | 0.0 | 0.00 | 0.37 | 0.37 | 81 | 1017.4 |
| 20260506060939 | 57 | 340 | 0.0 | 0.0 | 0.00 | 0.37 | 0.37 | 81 | 1017.3 |
| 20260506060935 | 57 | 340 | 0.0 | 0.0 | 0.00 | 0.37 | 0.37 | 81 | 1017.2 |
| 20260506050935 | 58 | 340 | 0.0 | 2.0 | 0.00 | 0.38 | 0.37 | 80 | 1017.1 |
| 20260506050434 | 58 | 340 | 0.0 | 1.0 | 0.00 | 0.38 | 0.37 | 79 | 1017.2 |
| 20260506044932 | 58 | 340 | 0.0 | 0.0 | 0.00 | 0.39 | 0.37 | 79 | 1016.9 |
| 20260506044429 | 58 | 340 | 0.0 | 1.0 | 0.00 | 0.39 | 0.37 | 79 | 1016.9 |
| 20260506043931 | 58 | 340 | 0.0 | 1.0 | 0.00 | 0.39 | 0.37 | 79 | 1016.7 |
| 20260506043429 | 58 | 340 | 0.0 | 1.0 | 0.00 | 0.39 | 0.37 | 79 | 1016.7 |
| 20260506042936 | 58 | 340 | 0.0 | 1.0 | 0.00 | 0.39 | 0.37 | 78 | 1016.4 |
| 20260506042931 | 58 | 340 | 0.0 | 1.0 | 0.00 | 0.39 | 0.37 | 79 | 1016.7 |
| 20260506042431 | 58 | 340 | 0.0 | 1.0 | 0.00 | 0.39 | 0.37 | 79 | 1016.7 |
| 20260506041431 | 58 | 340 | 0.0 | 1.0 | 0.00 | 0.39 | 0.37 | 78 | 1016.5 |
| 20260506040930 | 58 | 340 | 0.0 | 1.0 | 0.00 | 0.39 | 0.37 | 78 | 1016.5 |
| 20260506040433 | 58 | 340 | 0.0 | 1.0 | 0.00 | 0.39 | 0.37 | 78 | 1016.3 |
| 20260506040428 | 58 | 340 | 0.0 | 1.0 | 0.00 | 0.39 | 0.37 | 78 | 1016.4 |
| 20260506035428 | 58 | 340 | 0.0 | 0.0 | 0.00 | 0.39 | 0.37 | 78 | 1016.3 |
| 20260506034928 | 58 | 340 | 0.0 | 0.0 | 0.00 | 0.39 | 0.37 | 78 | 1016.2 |
| 20260506034427 | 58 | 340 | 0.0 | 0.0 | 0.00 | 0.39 | 0.37 | 77 | 1016.1 |
| 20260506033928 | 58 | 340 | 0.0 | 0.0 | 0.00 | 0.39 | 0.37 | 77 | 1016.0 |
| 20260506033428 | 58 | 340 | 0.0 | 0.0 | 0.00 | 0.39 | 0.37 | 77 | 1016.0 |
| 20260506032928 | 58 | 340 | 0.0 | 0.0 | 0.00 | 0.39 | 0.37 | 76 | 1015.9 |
| 20260506032427 | 58 | 340 | 0.0 | 0.0 | 0.00 | 0.39 | 0.37 | 76 | 1015.9 |
| 20260506031926 | 58 | 340 | 0.0 | 0.0 | 0.00 | 0.39 | 0.37 | 75 | 1015.9 |
| 20260506031430 | 59 | 340 | 0.0 | 1.0 | 0.00 | 0.39 | 0.37 | 74 | 1015.7 |
| 20260506031425 | 59 | 340 | 0.0 | 0.0 | 0.00 | 0.39 | 0.37 | 75 | 1015.8 |
| 20260506031045 | 59 | 340 | 0.0 | 2.0 | 0.00 | 0.39 | 0.37 | 74 | 1015.7 |
| 20260506025927 | 59 | 340 | 0.0 | 2.0 | 0.00 | 0.39 | 0.37 | 73 | 1015.7 |
| 20260506025425 | 59 | 343 | 0.0 | 2.0 | 0.00 | 0.39 | 0.37 | 73 | 1015.6 |
| 20260506024925 | 59 | 321 | 0.0 | 2.0 | 0.00 | 0.39 | 0.37 | 73 | 1015.4 |
| 20260506024425 | 59 | 351 | 0.0 | 1.0 | 0.00 | 0.39 | 0.37 | 72 | 1015.4 |
| 20260506023926 | 60 | 352 | 0.0 | 3.0 | 0.00 | 0.39 | 0.37 | 72 | 1015.3 |
| 20260506023426 | 60 | 13 | 1.0 | 4.0 | 0.00 | 0.39 | 0.37 | 71 | 1015.3 |
| 20260506022926 | 60 | 29 | 1.0 | 4.0 | 0.00 | 0.39 | 0.37 | 71 | 1015.2 |
| 20260506022425 | 60 | 12 | 0.0 | 4.0 | 0.00 | 0.39 | 0.37 | 70 | 1015.1 |
| 20260506021925 | 60 | 330 | 0.0 | 5.0 | 0.00 | 0.39 | 0.37 | 70 | 1015.1 |
| 20260506021423 | 61 | 324 | 1.0 | 6.0 | 0.00 | 0.39 | 0.37 | 70 | 1015.0 |
| 20260506020931 | 62 | 348 | 0.0 | 4.0 | 0.00 | 0.39 | 0.37 | 70 | 1014.9 |
| 20260506020924 | 61 | 13 | 2.0 | 6.0 | 0.00 | 0.39 | 0.37 | 70 | 1015.0 |
| 20260506020423 | 61 | 18 | 1.0 | 5.0 | 0.00 | 0.39 | 0.37 | 70 | 1014.9 |
| 20260506015923 | 61 | 34 | 1.0 | 4.0 | 0.00 | 0.39 | 0.37 | 70 | 1014.9 |
| 20260506014923 | 62 | 359 | 1.0 | 7.0 | 0.00 | 0.39 | 0.37 | 69 | 1014.9 |
| 20260506014428 | 62 | 346 | 1.0 | 6.0 | 0.00 | 0.39 | 0.37 | 68 | 1014.8 |
| 20260506014424 | 62 | 331 | 1.0 | 7.0 | 0.00 | 0.39 | 0.37 | 68 | 1014.9 |
| 20260506013426 | 63 | 18 | 2.0 | 9.0 | 0.00 | 0.39 | 0.37 | 65 | 1014.7 |
| 20260506013421 | 62 | 44 | 2.0 | 9.0 | 0.00 | 0.39 | 0.37 | 67 | 1014.8 |
| 20260506012421 | 63 | 29 | 1.0 | 8.0 | 0.00 | 0.39 | 0.37 | 65 | 1014.7 |
| 20260506011922 | 64 | 328 | 1.0 | 8.0 | 0.00 | 0.39 | 0.37 | 66 | 1014.6 |
| 20260506011422 | 63 | 3 | 1.0 | 8.0 | 0.00 | 0.39 | 0.37 | 65 | 1014.5 |
| 20260506010921 | 63 | 296 | 2.0 | 9.0 | 0.00 | 0.39 | 0.37 | 66 | 1014.7 |
| 20260506010421 | 64 | 335 | 3.0 | 10.0 | 0.00 | 0.39 | 0.37 | 64 | 1014.7 |
| 20260506005921 | 64 | 29 | 3.0 | 10.0 | 0.00 | 0.39 | 0.37 | 64 | 1014.7 |
| 20260506005427 | 64 | 338 | 3.0 | 16.0 | 0.00 | 0.39 | 0.37 | 63 | 1014.5 |
| 20260506005422 | 64 | 303 | 3.0 | 16.0 | 0.00 | 0.39 | 0.37 | 64 | 1014.5 |
| 20260506004418 | 64 | 359 | 2.0 | 8.0 | 0.00 | 0.39 | 0.37 | 64 | 1014.5 |
| 20260506003920 | 65 | 341 | 2.0 | 8.0 | 0.00 | 0.39 | 0.37 | 65 | 1014.2 |
| 20260506003424 | 65 | 339 | 2.0 | 9.0 | 0.00 | 0.39 | 0.37 | 62 | 1014.4 |
| 20260506003418 | 64 | 62 | 2.0 | 9.0 | 0.00 | 0.39 | 0.37 | 63 | 1014.2 |
| 20260506003041 | 66 | 305 | 2.0 | 10.0 | 0.00 | 0.39 | 0.37 | 62 | 1014.2 |
| 20260506001925 | 66 | 56 | 3.0 | 11.0 | 0.00 | 0.39 | 0.37 | 62 | 1014.2 |
| 20260506001919 | 66 | 29 | 3.0 | 11.0 | 0.00 | 0.39 | 0.37 | 63 | 1014.2 |
| 20260506001540 | 67 | 58 | 3.0 | 12.0 | 0.00 | 0.39 | 0.37 | 61 | 1014.2 |
| 20260506001024 | 66 | 29 | 2.0 | 9.0 | 0.00 | 0.39 | 0.37 | 60 | 1014.1 |
| 20260505235924 | 67 | 334 | 4.0 | 12.0 | 0.00 | 0.39 | 0.37 | 62 | 1014.0 |
| 20260505235918 | 67 | 67 | 4.0 | 12.0 | 0.00 | 0.39 | 0.37 | 59 | 1014.1 |
| 20260505234924 | 67 | 332 | 3.0 | 10.0 | 0.00 | 0.39 | 0.37 | 61 | 1014.0 |
| 20260505234919 | 67 | 318 | 4.0 | 10.0 | 0.00 | 0.39 | 0.37 | 61 | 1014.0 |
| 20260505233920 | 67 | 331 | 4.0 | 11.0 | 0.00 | 0.39 | 0.37 | 60 | 1014.2 |
| 20260505233425 | 68 | 326 | 4.0 | 13.0 | 0.00 | 0.39 | 0.37 | 58 | 1014.0 |
| 20260505233420 | 67 | 330 | 4.0 | 11.0 | 0.00 | 0.39 | 0.37 | 59 | 1014.2 |
| 20260505233042 | 68 | 273 | 4.0 | 13.0 | 0.00 | 0.39 | 0.37 | 58 | 1014.0 |
| 20260505232918 | 67 | 7 | 5.0 | 13.0 | 0.00 | 0.39 | 0.37 | 59 | 1014.1 |
| 20260505231419 | 68 | 322 | 3.0 | 13.0 | 0.00 | 0.39 | 0.37 | 59 | 1014.1 |
| 20260505230918 | 68 | 295 | 3.0 | 11.0 | 0.00 | 0.39 | 0.37 | 59 | 1014.0 |
| 20260505230426 | 68 | 332 | 3.0 | 12.0 | 0.00 | 0.39 | 0.37 | 58 | 1014.4 |
| 20260505230420 | 67 | 350 | 3.0 | 12.0 | 0.00 | 0.39 | 0.37 | 59 | 1014.1 |
| 20260505225419 | 68 | 34 | 3.0 | 12.0 | 0.00 | 0.39 | 0.37 | 57 | 1014.4 |
| 20260505224918 | 68 | 287 | 4.0 | 13.0 | 0.00 | 0.39 | 0.37 | 59 | 1014.2 |
| 20260505224419 | 68 | 311 | 4.0 | 13.0 | 0.00 | 0.39 | 0.37 | 57 | 1014.2 |
| 20260505223920 | 68 | 322 | 4.0 | 12.0 | 0.00 | 0.39 | 0.37 | 56 | 1014.4 |
| 20260505223419 | 68 | 269 | 4.0 | 12.0 | 0.00 | 0.39 | 0.37 | 55 | 1014.2 |
| 20260505222919 | 68 | 350 | 3.0 | 12.0 | 0.00 | 0.39 | 0.37 | 56 | 1014.4 |
| 20260505222419 | 67 | 334 | 3.0 | 9.0 | 0.00 | 0.39 | 0.37 | 58 | 1014.4 |
| 20260505221920 | 68 | 314 | 4.0 | 10.0 | 0.00 | 0.39 | 0.37 | 57 | 1014.5 |
| 20260505221418 | 68 | 284 | 3.0 | 10.0 | 0.00 | 0.39 | 0.37 | 56 | 1014.5 |
| 20260505220918 | 68 | 307 | 3.0 | 12.0 | 0.00 | 0.39 | 0.37 | 57 | 1014.5 |
| 20260505220424 | 69 | 288 | 5.0 | 12.0 | 0.00 | 0.39 | 0.37 | 56 | 1014.5 |
| 20260505220419 | 69 | 329 | 4.0 | 12.0 | 0.00 | 0.39 | 0.37 | 57 | 1014.6 |
| 20260505215418 | 69 | 324 | 4.0 | 11.0 | 0.00 | 0.39 | 0.37 | 57 | 1014.5 |
| 20260505214919 | 69 | 330 | 3.0 | 9.0 | 0.00 | 0.39 | 0.37 | 56 | 1014.5 |
| 20260505214418 | 69 | 16 | 3.0 | 10.0 | 0.00 | 0.39 | 0.37 | 54 | 1014.6 |
| 20260505213918 | 69 | 341 | 3.0 | 11.0 | 0.00 | 0.39 | 0.37 | 58 | 1014.8 |
| 20260505213425 | 69 | 303 | 3.0 | 13.0 | 0.00 | 0.39 | 0.37 | 56 | 1014.9 |
| 20260505213419 | 69 | 311 | 4.0 | 11.0 | 0.00 | 0.39 | 0.37 | 54 | 1014.7 |
| 20260505212918 | 69 | 312 | 4.0 | 11.0 | 0.00 | 0.39 | 0.37 | 56 | 1014.7 |
| 20260505212537 | 68 | 39 | 4.0 | 13.0 | 0.00 | 0.39 | 0.37 | 55 | 1014.9 |
| 20260505211419 | 68 | 292 | 4.0 | 11.0 | 0.00 | 0.39 | 0.37 | 58 | 1014.9 |
| 20260505210918 | 69 | 295 | 3.0 | 10.0 | 0.00 | 0.39 | 0.37 | 60 | 1014.9 |
| 20260505210418 | 68 | 317 | 2.0 | 13.0 | 0.00 | 0.39 | 0.37 | 58 | 1015.1 |
| 20260505205918 | 68 | 316 | 3.0 | 13.0 | 0.00 | 0.39 | 0.37 | 60 | 1015.0 |
| 20260505205418 | 67 | 49 | 3.0 | 11.0 | 0.00 | 0.39 | 0.37 | 60 | 1015.0 |
| 20260505204919 | 68 | 303 | 2.0 | 11.0 | 0.00 | 0.39 | 0.37 | 60 | 1015.0 |